Location: Azul
(36.7830°S, 59.8500°W)
Time: 10:23:10
(UTC-03:00)

ITAMSAT 1 - Visible Passes

Search period start: 22 October 2021 00:00
Search period end: 01 November 2021 00:00
Orbit: 783 x 797 km, 98.9° (Epoch: 21 October)

Date Brightness Start Highest point End Pass type
(mag) Time Alt. Az. Time Alt. Az. Time Alt. Az.
22 Oct 8.6 20:47:21 10° S 20:52:26 50° WSW 20:57:26 10° NW visible
23 Oct 7.6 20:17:44 10° SSE 20:23:01 84° ENE 20:28:13 10° NNW visible
23 Oct 10.8 22:00:04 10° SW 22:01:40 11° WSW 22:03:16 10° WSW visible
24 Oct 8.0 19:48:29 10° SSE 19:53:28 43° E 19:58:23 10° N visible
24 Oct 10.2 21:28:40 10° SSW 21:32:35 22° WSW 21:36:26 10° WNW visible
25 Oct 9.1 20:58:28 10° S 21:03:20 40° WSW 21:08:09 10° NW visible
26 Oct 7.9 20:28:42 10° S 20:33:58 77° WSW 20:39:09 10° NNW visible
27 Oct 7.8 19:59:19 10° SSE 20:04:28 55° E 20:09:32 10° N visible
27 Oct 10.5 21:40:04 10° SSW 21:43:24 17° WSW 21:46:44 10° WNW visible
28 Oct 9.5 21:09:37 10° S 21:14:13 32° WSW 21:18:46 10° NW visible
29 Oct 8.2 20:39:43 10° S 20:44:54 61° WSW 20:50:00 10° NNW visible
30 Oct 7.6 20:10:12 10° SSE 20:15:27 70° ENE 20:20:36 10° N visible
30 Oct 10.7 21:51:40 10° SSW 21:54:13 14° WSW 21:56:46 10° W visible
31 Oct 9.9 21:20:50 10° SSW 21:25:05 26° WSW 21:29:18 10° WNW visible
